contact:dominique.lefevre@mio.osupytheas.fr, maurice.libes@osupytheas.fr, didier.mallarino@osupytheas.fr
Project:EMSO http://www.emso-fr.org/EMSO-France
Depth: 2436.0 m
Title:EMSO Ligure Ouest : Data MII capteur AQUADOPP
Date,Latitude,Longitude,X_East,Y_North,Z_Up,Amplitude_X,Amplitude_Y,Amplitude_Z,Batterie,SoundSpeed,Heading,Pitch,Roll,Pressure,TIS,Speed,Direction
, degrees North, degrees East, m.s-1, m.s-1,m.s-1, 1, 1, 1, Volt, m.s-1, degree, degree, degree, dbar, degree_C, m.s-1, degree
2021-08-31T00:04:03,42.805,6.029,0.046,-0.018,-0.015,100.0,103.0,100.0,13.4,1505.2,326.6,-0.8,1.8,2470.596,13.28,0.049,111.4
2021-08-31T00:07:03,42.805,6.029,0.078,-0.024,-0.007,101.0,102.0,99.0,13.4,1505.2,325.3,-0.8,1.8,2470.596,13.28,0.081,107.1
2021-08-31T00:10:03,42.805,6.029,0.036,0.01,-0.006,100.0,102.0,100.0,13.4,1505.2,327.1,-0.7,1.9,2470.564,13.28,0.037,74.5
2021-08-31T00:13:03,42.805,6.029,0.059,0.002,0.035,100.0,104.0,100.0,13.4,1505.2,328.1,-0.8,1.8,2470.608,13.28,0.059,88.1
2021-08-31T00:16:03,42.805,6.029,0.051,-0.009,0.0,101.0,102.0,99.0,13.4,1505.2,325.5,-0.7,1.8,2470.581,13.28,0.051,100.0
2021-08-31T00:19:03,42.805,6.029,0.054,-0.027,0.007,101.0,102.0,100.0,13.4,1505.2,331.2,-0.7,1.8,2470.591,13.28,0.06,116.6
2021-08-31T00:22:03,42.805,6.029,0.045,-0.038,0.004,101.0,103.0,100.0,13.3,1505.2,329.4,-0.7,1.8,2470.602,13.28,0.058,130.2
2021-08-31T00:25:03,42.805,6.029,0.03,-0.006,-0.021,101.0,102.0,99.0,13.4,1505.2,327.7,-0.8,1.8,2470.576,13.28,0.03,101.3
2021-08-31T00:28:03,42.805,6.029,0.048,-0.013,0.006,101.0,103.0,100.0,13.4,1505.2,327.4,-0.7,1.8,2470.556,13.28,0.049,105.2
2021-08-31T00:31:03,42.805,6.029,0.068,-0.01,0.004,99.0,103.0,100.0,13.4,1505.2,326.5,-0.7,1.8,2470.583,13.28,0.068,98.4
2021-08-31T00:34:03,42.805,6.029,0.039,0.01,0.018,101.0,101.0,100.0,13.3,1505.2,326.7,-0.8,1.8,2470.572,13.28,0.04,75.6
2021-08-31T00:37:03,42.805,6.029,0.047,-0.021,-0.018,100.0,102.0,101.0,13.4,1505.2,328.5,-0.8,1.8,2470.606,13.28,0.051,114.1
2021-08-31T00:40:03,42.805,6.029,0.054,-0.027,-0.032,100.0,102.0,101.0,13.4,1505.2,329.3,-0.7,1.8,2470.586,13.28,0.06,116.6
2021-08-31T00:43:03,42.805,6.029,0.042,-0.014,-0.03,99.0,102.0,101.0,13.4,1505.2,327.0,-0.7,1.8,2470.577,13.28,0.044,108.4
2021-08-31T00:46:03,42.805,6.029,0.035,-0.016,0.001,101.0,102.0,100.0,13.4,1505.2,327.2,-0.8,1.8,2470.596,13.28,0.038,114.6
2021-08-31T00:49:03,42.805,6.029,0.052,-0.016,-0.023,100.0,101.0,100.0,13.4,1505.2,328.9,-0.7,1.8,2470.596,13.28,0.054,107.1
2021-08-31T00:52:03,42.805,6.029,0.072,-0.012,-0.002,101.0,102.0,99.0,13.3,1505.2,328.8,-0.8,1.8,2470.619,13.28,0.072,99.5
2021-08-31T00:55:03,42.805,6.029,0.029,0.002,0.007,100.0,103.0,100.0,13.4,1505.2,329.2,-0.7,1.8,2470.597,13.28,0.029,86.1
2021-08-31T00:58:03,42.805,6.029,0.045,-0.008,-0.023,100.0,102.0,100.0,13.4,1505.2,326.1,-0.7,1.8,2470.548,13.28,0.045,100.1
2021-08-31T01:04:03,42.805,6.029,0.02,0.01,-0.026,103.0,102.0,101.0,13.3,1505.2,329.3,-0.8,1.8,2470.576,13.28,0.022,63.4
2021-08-31T01:07:03,42.805,6.029,0.006,-0.013,-0.033,101.0,103.0,101.0,13.4,1505.2,325.8,-0.8,1.8,2470.632,13.28,0.014,155.2
2021-08-31T01:10:03,42.805,6.029,0.062,-0.019,0.018,101.0,104.0,99.0,13.4,1505.2,330.3,-0.8,1.9,2470.596,13.28,0.064,107.0
2021-08-31T01:13:03,42.805,6.029,0.044,-0.009,-0.001,101.0,102.0,100.0,13.4,1505.2,327.4,-0.8,1.9,2470.661,13.28,0.044,101.6
2021-08-31T01:16:03,42.805,6.029,0.045,-0.01,-0.028,100.0,102.0,100.0,13.4,1505.2,325.6,-0.8,1.8,2470.597,13.28,0.046,102.5
2021-08-31T01:19:03,42.805,6.029,0.08,-0.012,-0.001,101.0,105.0,99.0,13.3,1505.2,327.7,-0.7,1.8,2470.635,13.28,0.08,98.5
2021-08-31T01:22:03,42.805,6.029,0.054,-0.014,0.005,100.0,102.0,100.0,13.3,1505.2,328.0,-0.7,1.8,2470.594,13.28,0.055,104.5
2021-08-31T01:25:03,42.805,6.029,0.044,0.01,0.026,100.0,101.0,100.0,13.4,1505.2,329.8,-0.7,1.8,2470.596,13.28,0.045,77.2
2021-08-31T01:28:03,42.805,6.029,0.052,-0.006,-0.001,99.0,102.0,100.0,13.4,1505.2,325.8,-0.7,1.8,2470.623,13.28,0.052,96.6
2021-08-31T01:31:03,42.805,6.029,0.075,-0.019,-0.004,99.0,102.0,101.0,13.4,1505.2,326.8,-0.7,1.8,2470.58,13.28,0.077,104.2
2021-08-31T01:34:03,42.805,6.029,0.036,-0.021,-0.016,103.0,102.0,99.0,13.4,1505.2,327.7,-0.7,1.8,2470.588,13.28,0.041,120.3
2021-08-31T01:37:03,42.805,6.029,0.057,0.013,0.018,100.0,102.0,100.0,13.4,1505.2,326.0,-0.8,1.8,2470.573,13.28,0.058,77.2
2021-08-31T01:40:03,42.805,6.029,0.054,-0.025,-0.016,100.0,101.0,101.0,13.4,1505.2,325.5,-0.8,1.8,2470.574,13.28,0.059,114.8
2021-08-31T01:43:03,42.805,6.029,0.043,-0.023,-0.023,101.0,102.0,100.0,13.3,1505.2,330.9,-0.8,1.8,2470.593,13.28,0.048,118.1
2021-08-31T01:46:03,42.805,6.029,0.048,0.009,0.019,99.0,103.0,101.0,13.4,1505.2,327.6,-0.8,1.9,2470.573,13.28,0.048,79.4
2021-08-31T01:49:03,42.805,6.029,0.051,-0.01,0.023,100.0,104.0,99.0,13.4,1505.2,327.8,-0.8,1.8,2470.582,13.28,0.051,101.1
2021-08-31T01:52:03,42.805,6.029,0.071,-0.02,-0.022,100.0,102.0,99.0,13.4,1505.2,326.0,-0.8,1.8,2470.54,13.28,0.073,105.7
2021-08-31T01:55:03,42.805,6.029,0.067,-0.01,-0.001,101.0,102.0,100.0,13.4,1505.2,331.4,-0.8,1.8,2470.573,13.28,0.067,98.5
2021-08-31T01:58:03,42.805,6.029,0.048,-0.024,-0.017,99.0,100.0,101.0,13.4,1505.2,327.1,-0.8,1.8,2470.557,13.28,0.053,116.6
2021-08-31T02:04:03,42.805,6.029,0.043,-0.008,0.02,101.0,102.0,100.0,13.4,1505.2,325.0,-0.8,1.8,2470.612,13.28,0.043,100.5
2021-08-31T02:07:03,42.805,6.029,0.041,-0.018,0.001,101.0,102.0,100.0,13.4,1505.2,330.6,-0.7,1.8,2470.619,13.28,0.044,113.7
2021-08-31T02:10:03,42.805,6.029,0.035,-0.009,0.001,102.0,102.0,100.0,13.4,1505.2,329.2,-0.7,1.8,2470.577,13.28,0.036,104.4
2021-08-31T02:13:03,42.805,6.029,0.045,-0.019,0.013,101.0,103.0,100.0,13.4,1505.2,328.4,-0.7,1.8,2470.554,13.28,0.048,112.9
2021-08-31T02:16:03,42.805,6.029,0.078,-0.027,0.0,100.0,104.0,101.0,13.4,1505.2,326.3,-0.8,1.8,2470.591,13.28,0.082,109.1
2021-08-31T02:19:03,42.805,6.029,0.032,0.008,0.007,98.0,105.0,100.0,13.4,1505.2,330.9,-0.8,1.9,2470.588,13.28,0.032,76.0
2021-08-31T02:22:03,42.805,6.029,0.027,-0.007,-0.019,100.0,102.0,100.0,13.4,1505.2,327.2,-0.8,1.8,2470.576,13.28,0.027,104.5
2021-08-31T02:25:03,42.805,6.029,0.055,-0.008,0.037,101.0,102.0,100.0,13.4,1505.2,329.8,-0.7,1.8,2470.57,13.28,0.055,98.3
2021-08-31T02:28:03,42.805,6.029,0.06,-0.009,0.008,100.0,102.0,101.0,13.4,1505.2,327.7,-0.7,1.8,2470.575,13.28,0.06,98.5
2021-08-31T02:31:03,42.805,6.029,0.052,-0.008,0.027,101.0,103.0,99.0,13.3,1505.2,329.8,-0.8,1.8,2470.581,13.28,0.052,98.7
2021-08-31T02:34:03,42.805,6.029,0.067,-0.019,0.026,100.0,102.0,100.0,13.3,1505.2,331.1,-0.7,1.8,2470.511,13.28,0.069,105.8
2021-08-31T02:37:03,42.805,6.029,0.049,-0.001,0.026,101.0,101.0,100.0,13.4,1505.2,331.7,-0.8,1.8,2470.554,13.28,0.049,91.2
2021-08-31T02:40:03,42.805,6.029,0.066,-0.015,0.003,100.0,103.0,101.0,13.4,1505.2,325.7,-0.7,1.8,2470.564,13.28,0.067,102.8
2021-08-31T02:43:03,42.805,6.029,0.071,-0.013,0.013,102.0,101.0,100.0,13.4,1505.2,329.0,-0.8,1.8,2470.533,13.28,0.072,100.4
2021-08-31T02:46:03,42.805,6.029,0.06,-0.014,0.018,99.0,104.0,100.0,13.4,1505.2,327.5,-0.7,1.8,2470.576,13.28,0.061,103.1
2021-08-31T02:49:03,42.805,6.029,0.069,0.008,0.021,101.0,103.0,101.0,13.4,1505.2,330.3,-0.8,1.8,2470.545,13.28,0.069,83.4
2021-08-31T02:52:03,42.805,6.029,0.088,-0.026,0.029,101.0,102.0,100.0,13.4,1505.2,329.1,-0.8,1.9,2470.569,13.28,0.091,106.5
2021-08-31T02:55:03,42.805,6.029,0.069,-0.018,-0.015,100.0,101.0,101.0,13.4,1505.2,326.2,-0.7,1.8,2470.563,13.28,0.071,104.6
2021-08-31T02:58:03,42.805,6.029,0.076,-0.017,0.011,100.0,103.0,99.0,13.4,1505.2,329.0,-0.7,1.8,2470.57,13.28,0.077,102.6
2021-08-31T03:04:03,42.805,6.029,0.085,-0.018,0.013,101.0,102.0,100.0,13.4,1505.2,327.3,-0.8,1.8,2470.577,13.28,0.086,102.0
2021-08-31T03:07:03,42.805,6.029,0.059,-0.031,-0.015,100.0,103.0,100.0,13.4,1505.2,327.8,-0.8,1.8,2470.571,13.28,0.066,117.7
2021-08-31T03:10:03,42.805,6.029,0.076,-0.012,0.018,100.0,102.0,100.0,13.4,1505.2,326.4,-0.8,1.8,2470.554,13.28,0.076,99.0
2021-08-31T03:13:03,42.805,6.029,0.06,-0.032,-0.026,99.0,100.0,101.0,13.3,1505.2,329.2,-0.8,1.8,2470.536,13.28,0.067,118.1
2021-08-31T03:16:03,42.805,6.029,0.06,-0.029,0.007,99.0,102.0,101.0,13.4,1505.2,326.7,-0.8,1.8,2470.566,13.28,0.066,115.8
2021-08-31T03:19:03,42.805,6.029,0.043,-0.018,-0.015,100.0,101.0,100.0,13.4,1505.2,328.8,-0.7,1.8,2470.549,13.28,0.046,112.7
2021-08-31T03:22:03,42.805,6.029,0.039,-0.038,0.003,101.0,102.0,100.0,13.4,1505.2,330.1,-0.8,1.8,2470.591,13.28,0.054,134.3
2021-08-31T03:25:03,42.805,6.029,0.061,-0.044,0.013,101.0,101.0,99.0,13.4,1505.2,330.0,-0.8,1.8,2470.574,13.28,0.075,125.8
2021-08-31T03:28:03,42.805,6.029,0.077,-0.023,0.031,98.0,103.0,101.0,13.3,1505.2,328.5,-0.8,1.8,2470.555,13.28,0.08,106.6
2021-08-31T03:31:03,42.805,6.029,0.066,-0.011,0.024,101.0,101.0,101.0,13.3,1505.2,328.0,-0.7,1.8,2470.529,13.28,0.066,99.5
2021-08-31T03:34:03,42.805,6.029,0.051,-0.013,0.008,100.0,101.0,99.0,13.3,1505.2,330.0,-0.8,1.8,2470.562,13.28,0.052,104.3
2021-08-31T03:37:03,42.805,6.029,0.052,-0.006,0.039,101.0,101.0,100.0,13.4,1505.2,331.2,-0.7,1.8,2470.578,13.28,0.052,96.6
2021-08-31T03:40:03,42.805,6.029,0.073,-0.037,0.019,100.0,102.0,100.0,13.4,1505.2,327.8,-0.7,1.8,2470.561,13.28,0.081,116.9
2021-08-31T03:43:03,42.805,6.029,0.047,-0.018,-0.016,100.0,101.0,101.0,13.3,1505.2,326.4,-0.8,1.8,2470.532,13.28,0.05,111.0
2021-08-31T03:46:03,42.805,6.029,0.071,-0.032,0.008,100.0,101.0,101.0,13.4,1505.2,331.2,-0.7,1.9,2470.539,13.28,0.077,114.3
2021-08-31T03:49:03,42.805,6.029,0.062,-0.007,0.04,100.0,102.0,100.0,13.4,1505.2,328.8,-0.8,1.8,2470.555,13.28,0.062,96.4
2021-08-31T03:52:03,42.805,6.029,0.06,-0.005,0.023,99.0,102.0,100.0,13.4,1505.2,327.9,-0.8,1.8,2470.563,13.28,0.06,94.8
2021-08-31T03:55:03,42.805,6.029,0.078,-0.006,0.044,100.0,102.0,100.0,13.4,1505.2,327.0,-0.8,1.8,2470.551,13.28,0.078,94.4
2021-08-31T03:58:03,42.805,6.029,0.067,-0.022,-0.011,101.0,101.0,99.0,13.3,1505.2,329.7,-0.8,1.8,2470.506,13.28,0.07,108.2
2021-08-31T04:04:03,42.805,6.029,0.056,-0.012,0.02,101.0,103.0,100.0,13.4,1505.2,330.4,-0.7,1.8,2470.581,13.28,0.057,102.1
2021-08-31T04:07:03,42.805,6.029,0.056,-0.015,0.039,100.0,102.0,100.0,13.4,1505.2,327.2,-0.7,1.8,2470.526,13.28,0.057,105.0
2021-08-31T04:10:03,42.805,6.029,0.046,-0.019,-0.021,100.0,103.0,100.0,13.3,1505.2,327.1,-0.8,1.8,2470.553,13.28,0.049,112.4
2021-08-31T04:13:03,42.805,6.029,0.066,-0.016,0.003,100.0,101.0,100.0,13.4,1505.2,325.1,-0.7,1.8,2470.554,13.28,0.067,103.6
2021-08-31T04:16:03,42.805,6.029,0.067,-0.016,0.004,102.0,100.0,100.0,13.3,1505.2,331.0,-0.7,1.8,2470.544,13.28,0.068,103.4
2021-08-31T04:19:03,42.805,6.029,0.067,-0.023,0.009,100.0,101.0,100.0,13.4,1505.2,328.8,-0.7,1.8,2470.529,13.28,0.07,108.9
2021-08-31T04:22:03,42.805,6.029,0.059,-0.025,-0.026,101.0,103.0,99.0,13.4,1505.2,330.7,-0.7,1.9,2470.531,13.28,0.064,113.0
2021-08-31T04:25:03,42.805,6.029,0.05,-0.01,0.024,99.0,102.0,101.0,13.4,1505.2,325.7,-0.8,1.8,2470.552,13.28,0.05,101.3
2021-08-31T04:28:03,42.805,6.029,0.089,-0.028,-0.001,101.0,104.0,99.0,13.3,1505.2,326.4,-0.8,1.8,2470.511,13.28,0.093,107.5
2021-08-31T04:31:03,42.805,6.029,0.08,-0.039,-0.009,100.0,103.0,100.0,13.4,1505.2,329.4,-0.8,1.8,2470.559,13.28,0.088,116.0
2021-08-31T04:34:03,42.805,6.029,0.065,-0.017,0.002,101.0,104.0,100.0,13.3,1505.2,328.9,-0.7,1.8,2470.525,13.28,0.067,104.7
2021-08-31T04:37:03,42.805,6.029,0.041,-0.015,-0.007,101.0,102.0,100.0,13.4,1505.2,329.6,-0.7,1.8,2470.535,13.28,0.043,110.1
2021-08-31T04:40:03,42.805,6.029,0.047,-0.025,0.018,101.0,104.0,100.0,13.3,1505.2,329.9,-0.7,1.8,2470.534,13.28,0.053,118.0
2021-08-31T04:43:03,42.805,6.029,0.074,-0.015,0.034,101.0,103.0,100.0,13.3,1505.2,328.9,-0.7,1.8,2470.538,13.28,0.075,101.5
2021-08-31T04:46:03,42.805,6.029,0.074,-0.001,0.069,101.0,103.0,100.0,13.4,1505.2,329.7,-0.7,1.8,2470.527,13.28,0.074,90.8
2021-08-31T04:49:03,42.805,6.029,0.061,-0.015,0.06,101.0,102.0,100.0,13.3,1505.2,325.5,-0.8,1.8,2470.55,13.28,0.062,103.8
2021-08-31T04:52:03,42.805,6.029,0.087,-0.022,0.02,100.0,102.0,100.0,13.4,1505.2,331.0,-0.7,1.8,2470.552,13.28,0.089,104.2
2021-08-31T04:55:03,42.805,6.029,0.086,-0.009,0.029,100.0,102.0,101.0,13.4,1505.2,327.0,-0.8,1.8,2470.529,13.28,0.086,96.0
2021-08-31T04:58:03,42.805,6.029,0.076,-0.026,0.016,100.0,102.0,100.0,13.4,1505.2,328.4,-0.7,1.8,2470.504,13.28,0.08,108.9
2021-08-31T05:04:03,42.805,6.029,0.048,-0.012,0.008,100.0,103.0,100.0,13.4,1505.2,329.9,-0.8,1.8,2470.545,13.28,0.049,104.0
2021-08-31T05:07:03,42.805,6.029,0.056,-0.007,0.014,101.0,103.0,100.0,13.3,1505.2,328.4,-0.7,1.8,2470.546,13.28,0.056,97.1
2021-08-31T05:10:03,42.805,6.029,0.063,-0.015,0.018,101.0,102.0,100.0,13.4,1505.2,328.3,-0.8,1.8,2470.532,13.28,0.064,103.4
2021-08-31T05:13:03,42.805,6.029,0.073,-0.022,0.029,102.0,104.0,100.0,13.4,1505.2,329.8,-0.7,1.8,2470.55,13.28,0.076,106.8
2021-08-31T05:16:03,42.805,6.029,0.049,-0.018,0.002,101.0,100.0,100.0,13.4,1505.2,327.2,-0.8,1.8,2470.499,13.28,0.052,110.2
2021-08-31T05:19:03,42.805,6.029,0.074,-0.006,0.038,100.0,101.0,101.0,13.4,1505.2,325.7,-0.7,1.8,2470.523,13.28,0.074,94.6
2021-08-31T05:22:03,42.805,6.029,0.058,-0.008,0.004,101.0,102.0,100.0,13.4,1505.2,331.0,-0.7,1.9,2470.523,13.28,0.058,97.8
2021-08-31T05:25:03,42.805,6.029,0.064,-0.018,0.012,101.0,101.0,100.0,13.4,1505.2,326.7,-0.8,1.8,2470.52,13.28,0.066,105.7
2021-08-31T05:28:03,42.805,6.029,0.087,-0.032,-0.022,101.0,101.0,100.0,13.4,1505.2,325.4,-0.8,1.8,2470.513,13.28,0.092,110.2
2021-08-31T05:31:03,42.805,6.029,0.065,-0.032,0.02,101.0,101.0,100.0,13.4,1505.2,330.7,-0.8,1.8,2470.508,13.28,0.072,116.2
2021-08-31T05:34:03,42.805,6.029,0.048,0.007,0.02,100.0,101.0,100.0,13.4,1505.2,327.1,-0.7,1.8,2470.529,13.28,0.048,81.7
2021-08-31T05:37:03,42.805,6.029,0.049,-0.018,-0.006,101.0,101.0,100.0,13.3,1505.2,327.7,-0.7,1.8,2470.497,13.28,0.052,110.2
2021-08-31T05:40:03,42.805,6.029,0.077,-0.016,0.009,100.0,101.0,100.0,13.3,1505.2,328.9,-0.8,1.8,2470.512,13.28,0.078,101.7
2021-08-31T05:43:03,42.805,6.029,0.059,-0.015,0.022,101.0,102.0,101.0,13.4,1505.2,327.9,-0.8,1.8,2470.51,13.28,0.06,104.3
2021-08-31T05:46:03,42.805,6.029,0.039,-0.029,-0.019,100.0,102.0,100.0,13.4,1505.2,331.0,-0.8,1.8,2470.534,13.28,0.048,126.6
2021-08-31T05:49:03,42.805,6.029,0.069,-0.015,0.02,101.0,101.0,100.0,13.3,1505.2,326.7,-0.7,1.8,2470.476,13.28,0.07,102.3
2021-08-31T05:52:03,42.805,6.029,0.02,-0.009,0.012,100.0,100.0,100.0,13.4,1505.2,328.9,-0.7,1.8,2470.485,13.28,0.021,114.2
2021-08-31T05:55:03,42.805,6.029,0.066,0.0,0.006,101.0,102.0,99.0,13.4,1505.2,325.1,-0.7,1.8,2470.509,13.28,0.065,90.0
2021-08-31T05:58:03,42.805,6.029,0.046,-0.006,0.002,100.0,99.0,100.0,13.4,1505.2,330.7,-0.7,1.8,2470.514,13.28,0.046,97.4
2021-08-31T06:04:03,42.805,6.029,0.071,-0.019,-0.005,100.0,101.0,99.0,13.4,1505.2,329.1,-0.8,1.8,2470.51,13.28,0.073,105.0
2021-08-31T06:07:03,42.805,6.029,0.069,-0.008,0.015,101.0,101.0,100.0,13.4,1505.2,326.4,-0.7,1.8,2470.479,13.28,0.069,96.6
2021-08-31T06:10:03,42.805,6.029,0.059,-0.025,0.007,101.0,101.0,100.0,13.4,1505.2,327.8,-0.8,1.8,2470.487,13.28,0.064,113.0
2021-08-31T06:13:03,42.805,6.029,0.051,-0.025,0.006,100.0,101.0,100.0,13.3,1505.2,328.9,-0.8,1.8,2470.479,13.28,0.056,116.1
2021-08-31T06:16:03,42.805,6.029,0.063,-0.042,0.017,101.0,101.0,100.0,13.4,1505.2,329.3,-0.7,1.8,2470.51,13.28,0.075,123.7
2021-08-31T06:19:03,42.805,6.029,0.074,-0.034,-0.004,100.0,101.0,100.0,13.3,1505.2,327.1,-0.7,1.8,2470.436,13.28,0.081,114.7
2021-08-31T06:22:03,42.805,6.029,0.062,-0.03,-0.044,100.0,101.0,100.0,13.4,1505.2,325.5,-0.8,1.8,2470.492,13.28,0.068,115.8
2021-08-31T06:25:03,42.805,6.029,0.066,-0.021,0.004,100.0,101.0,100.0,13.4,1505.2,330.5,-0.8,1.8,2470.473,13.28,0.069,107.6
2021-08-31T06:28:03,42.805,6.029,0.05,-0.01,0.031,101.0,101.0,100.0,13.4,1505.2,328.1,-0.7,1.8,2470.46,13.28,0.05,101.3
2021-08-31T06:31:03,42.805,6.029,0.066,-0.029,0.013,101.0,102.0,99.0,13.3,1505.2,330.2,-0.8,1.8,2470.51,13.28,0.072,113.7
2021-08-31T06:34:03,42.805,6.029,0.063,-0.015,-0.001,101.0,100.0,100.0,13.4,1505.2,328.3,-0.8,1.8,2470.478,13.28,0.064,103.4
2021-08-31T06:37:03,42.805,6.029,0.094,-0.021,0.004,101.0,101.0,100.0,13.3,1505.2,326.7,-0.7,1.8,2470.487,13.28,0.096,102.6
2021-08-31T06:40:03,42.805,6.029,0.068,-0.029,0.005,100.0,101.0,100.0,13.4,1505.2,327.4,-0.7,1.9,2470.472,13.28,0.073,113.1
2021-08-31T06:43:03,42.805,6.029,0.07,-0.009,0.04,102.0,101.0,100.0,13.4,1505.2,326.7,-0.8,1.8,2470.495,13.28,0.07,97.3
2021-08-31T06:46:03,42.805,6.029,0.074,-0.029,0.028,101.0,100.0,100.0,13.4,1505.2,329.1,-0.8,1.8,2470.479,13.28,0.079,111.4
2021-08-31T06:49:03,42.805,6.029,0.045,-0.007,-0.006,101.0,102.0,99.0,13.4,1505.2,326.5,-0.7,1.8,2470.491,13.28,0.045,98.8
2021-08-31T06:52:03,42.805,6.029,0.06,-0.028,-0.007,100.0,101.0,100.0,13.4,1505.2,329.3,-0.7,1.8,2470.477,13.28,0.066,115.0
2021-08-31T06:55:03,42.805,6.029,0.055,-0.004,-0.008,100.0,101.0,100.0,13.3,1505.2,327.1,-0.7,1.8,2470.52,13.28,0.055,94.2
2021-08-31T06:58:03,42.805,6.029,0.07,-0.018,0.016,100.0,100.0,100.0,13.4,1505.2,326.4,-0.8,1.8,2470.488,13.28,0.072,104.4
2021-08-31T07:04:03,42.805,6.029,0.073,-0.031,-0.019,100.0,101.0,100.0,13.3,1505.2,326.7,-0.8,1.8,2470.549,13.28,0.079,113.0
2021-08-31T07:07:03,42.805,6.029,0.073,-0.031,0.026,101.0,100.0,100.0,13.4,1505.2,329.7,-0.7,1.9,2470.482,13.28,0.079,113.0
2021-08-31T07:10:03,42.805,6.029,0.041,-0.03,0.022,102.0,100.0,100.0,13.4,1505.2,330.2,-0.8,1.8,2470.482,13.28,0.05,126.2
2021-08-31T07:13:03,42.805,6.029,0.048,-0.016,-0.004,100.0,101.0,100.0,13.3,1505.2,330.9,-0.8,1.8,2470.53,13.28,0.05,108.4
2021-08-31T07:16:03,42.805,6.029,0.094,-0.012,0.04,100.0,101.0,100.0,13.3,1505.2,329.9,-0.7,1.8,2470.5,13.28,0.094,97.3
2021-08-31T07:19:03,42.805,6.029,0.103,-0.02,0.036,99.0,101.0,101.0,13.3,1505.2,326.4,-0.7,1.8,2470.474,13.28,0.104,101.0
2021-08-31T07:22:03,42.805,6.029,0.084,-0.05,-0.036,101.0,101.0,100.0,13.3,1505.2,328.7,-0.8,1.8,2470.485,13.28,0.097,120.8
2021-08-31T07:25:03,42.805,6.029,0.059,-0.005,0.029,101.0,100.0,101.0,13.4,1505.2,327.8,-0.7,1.8,2470.511,13.28,0.059,94.8
2021-08-31T07:28:03,42.805,6.029,0.079,-0.025,-0.008,100.0,101.0,100.0,13.4,1505.2,327.4,-0.7,1.8,2470.517,13.28,0.082,107.6
2021-08-31T07:31:03,42.805,6.029,0.077,-0.028,0.011,100.0,101.0,100.0,13.4,1505.2,329.7,-0.8,1.9,2470.506,13.28,0.081,110.0
2021-08-31T07:34:03,42.805,6.029,0.065,-0.015,-0.002,100.0,101.0,100.0,13.4,1505.2,326.4,-0.8,1.9,2470.504,13.28,0.066,103.0
2021-08-31T07:37:03,42.805,6.029,0.082,-0.036,-0.001,101.0,101.0,100.0,13.4,1505.2,329.4,-0.8,1.8,2470.491,13.28,0.089,113.7
2021-08-31T07:40:03,42.805,6.029,0.048,-0.026,-0.008,100.0,102.0,100.0,13.4,1505.2,325.5,-0.7,1.8,2470.485,13.28,0.054,118.4
2021-08-31T07:43:03,42.805,6.029,0.058,-0.011,0.025,100.0,101.0,100.0,13.4,1505.2,327.6,-0.8,1.8,2470.508,13.28,0.059,100.7
2021-08-31T07:46:03,42.805,6.029,0.049,-0.017,-0.016,100.0,100.0,100.0,13.4,1505.2,325.0,-0.8,1.8,2470.477,13.28,0.051,109.1
2021-08-31T07:49:03,42.805,6.029,0.08,-0.029,0.018,100.0,101.0,99.0,13.3,1505.2,327.3,-0.8,1.8,2470.512,13.28,0.085,109.9
2021-08-31T07:52:03,42.805,6.029,0.062,-0.015,0.009,101.0,101.0,100.0,13.4,1505.2,325.5,-0.7,1.8,2470.479,13.28,0.063,103.6
2021-08-31T07:55:03,42.805,6.029,0.062,-0.047,0.002,101.0,100.0,100.0,13.4,1505.2,329.6,-0.8,1.9,2470.485,13.28,0.077,127.2
2021-08-31T07:58:03,42.805,6.029,0.089,-0.013,0.009,100.0,100.0,100.0,13.4,1505.2,329.2,-0.7,1.8,2470.479,13.28,0.089,98.3
2021-08-31T08:04:03,42.805,6.029,0.07,-0.03,0.027,101.0,101.0,100.0,13.4,1505.2,330.8,-0.8,1.8,2470.526,13.28,0.076,113.2
2021-08-31T08:07:03,42.805,6.029,0.083,-0.035,-0.013,100.0,100.0,100.0,13.4,1505.2,328.6,-0.8,1.8,2470.516,13.28,0.09,112.9
2021-08-31T08:10:03,42.805,6.029,0.078,-0.005,0.022,100.0,102.0,99.0,13.4,1505.2,326.0,-0.8,1.8,2470.518,13.28,0.078,93.7
2021-08-31T08:13:03,42.805,6.029,0.069,-0.053,0.004,101.0,101.0,100.0,13.3,1505.2,329.3,-0.7,1.8,2470.486,13.28,0.087,127.5
2021-08-31T08:16:03,42.805,6.029,0.092,-0.033,0.003,102.0,100.0,100.0,13.4,1505.2,327.2,-0.8,1.8,2470.517,13.28,0.097,109.7
2021-08-31T08:19:03,42.805,6.029,0.043,-0.038,-0.001,100.0,101.0,100.0,13.3,1505.2,327.8,-0.8,1.8,2470.533,13.28,0.057,131.5
2021-08-31T08:22:03,42.805,6.029,0.061,-0.045,-0.02,100.0,101.0,100.0,13.4,1505.2,329.3,-0.8,1.8,2470.491,13.28,0.075,126.4
2021-08-31T08:25:03,42.805,6.029,0.066,-0.024,0.005,100.0,100.0,100.0,13.4,1505.2,325.8,-0.8,1.8,2470.496,13.28,0.07,110.0
2021-08-31T08:28:03,42.805,6.029,0.062,-0.04,-0.008,100.0,101.0,100.0,13.4,1505.2,328.1,-0.7,1.8,2470.546,13.28,0.073,122.8
2021-08-31T08:31:03,42.805,6.029,0.111,-0.039,0.022,100.0,100.0,100.0,13.4,1505.2,329.4,-0.8,1.8,2470.516,13.28,0.117,109.4
2021-08-31T08:34:03,42.805,6.029,0.084,-0.044,-0.023,99.0,99.0,101.0,13.4,1505.2,330.1,-0.7,1.8,2470.491,13.28,0.094,117.6
2021-08-31T08:37:03,42.805,6.029,0.101,-0.039,0.016,100.0,100.0,100.0,13.3,1505.2,329.4,-0.7,1.8,2470.517,13.28,0.108,111.1
2021-08-31T08:40:03,42.805,6.029,0.071,-0.023,0.02,101.0,100.0,100.0,13.4,1505.2,325.8,-0.8,1.9,2470.512,13.28,0.074,107.9
2021-08-31T08:43:03,42.805,6.029,0.062,-0.021,0.0,101.0,101.0,100.0,13.4,1505.2,329.6,-0.8,1.8,2470.515,13.28,0.065,108.7
2021-08-31T08:46:03,42.805,6.029,0.024,-0.019,-0.014,101.0,100.0,100.0,13.4,1505.2,328.5,-0.8,1.8,2470.484,13.28,0.03,128.4
2021-08-31T08:49:03,42.805,6.029,0.054,-0.024,0.004,100.0,101.0,100.0,13.4,1505.2,327.2,-0.7,1.8,2470.48,13.28,0.059,114.0
2021-08-31T08:52:03,42.805,6.029,0.095,-0.038,0.01,102.0,101.0,100.0,13.3,1505.2,326.7,-0.8,1.8,2470.492,13.28,0.102,111.8
2021-08-31T08:55:03,42.805,6.029,0.055,-0.022,0.006,101.0,101.0,100.0,13.4,1505.2,327.1,-0.8,1.8,2470.459,13.28,0.059,111.8
2021-08-31T08:58:03,42.805,6.029,0.061,-0.051,-0.022,101.0,102.0,100.0,13.3,1505.2,329.1,-0.8,1.8,2470.529,13.28,0.079,129.9
2021-08-31T09:04:03,42.805,6.029,0.051,-0.024,-0.006,100.0,101.0,100.0,13.4,1505.2,326.0,-0.7,1.8,2470.514,13.28,0.056,115.2
2021-08-31T09:07:03,42.805,6.029,0.069,-0.032,-0.006,100.0,100.0,100.0,13.4,1505.2,326.1,-0.7,1.8,2470.486,13.28,0.076,114.9
2021-08-31T09:10:03,42.805,6.029,0.045,-0.036,0.014,100.0,102.0,98.0,13.3,1505.2,330.6,-0.8,1.8,2470.545,13.28,0.057,128.7
2021-08-31T09:13:03,42.805,6.029,0.074,-0.024,0.021,101.0,101.0,100.0,13.4,1505.2,327.1,-0.8,1.8,2470.515,13.28,0.077,108.0
2021-08-31T09:16:03,42.805,6.029,0.024,-0.007,0.009,101.0,100.0,100.0,13.4,1505.2,329.3,-0.8,1.8,2470.525,13.28,0.025,106.3
2021-08-31T09:19:03,42.805,6.029,0.046,-0.015,0.012,101.0,101.0,99.0,13.4,1505.2,328.6,-0.8,1.8,2470.503,13.28,0.048,108.1
2021-08-31T09:22:03,42.805,6.029,0.063,-0.021,0.021,100.0,99.0,101.0,13.4,1505.2,325.6,-0.8,1.8,2470.529,13.28,0.066,108.4
2021-08-31T09:25:03,42.805,6.029,0.052,-0.02,0.017,101.0,101.0,100.0,13.4,1505.2,327.2,-0.8,1.8,2470.526,13.28,0.055,111.0
2021-08-31T09:28:03,42.805,6.029,0.057,-0.043,0.008,99.0,100.0,101.0,13.4,1505.2,330.6,-0.8,1.8,2470.509,13.28,0.071,127.0
2021-08-31T09:31:03,42.805,6.029,0.065,-0.036,0.014,100.0,102.0,100.0,13.3,1505.2,325.4,-0.7,1.8,2470.545,13.28,0.074,119.0
2021-08-31T09:34:03,42.805,6.029,0.053,-0.03,-0.016,101.0,102.0,100.0,13.4,1505.2,328.8,-0.8,1.8,2470.469,13.28,0.06,119.5
2021-08-31T09:37:03,42.805,6.029,0.073,-0.004,0.051,100.0,102.0,101.0,13.4,1505.2,328.4,-0.7,1.8,2470.528,13.28,0.073,93.1
2021-08-31T09:40:03,42.805,6.029,0.05,-0.008,0.024,101.0,101.0,100.0,13.4,1505.2,327.9,-0.7,1.8,2470.528,13.28,0.05,99.1
2021-08-31T09:43:03,42.805,6.029,0.055,-0.027,0.005,102.0,101.0,99.0,13.4,1505.2,329.3,-0.7,1.8,2470.484,13.28,0.061,116.1
2021-08-31T09:46:03,42.805,6.029,0.039,-0.006,-0.017,101.0,101.0,100.0,13.3,1505.2,330.3,-0.7,1.8,2470.521,13.28,0.039,98.7
2021-08-31T09:49:03,42.805,6.029,0.087,-0.025,-0.002,101.0,101.0,100.0,13.4,1505.2,327.2,-0.7,1.8,2470.548,13.28,0.09,106.0
2021-08-31T09:52:03,42.805,6.029,0.064,-0.034,0.005,101.0,101.0,100.0,13.4,1505.2,329.7,-0.8,1.8,2470.505,13.28,0.072,118.0
2021-08-31T09:55:03,42.805,6.029,0.049,-0.011,0.012,100.0,101.0,100.0,13.4,1505.2,325.4,-0.8,1.8,2470.506,13.28,0.05,102.7
2021-08-31T09:58:03,42.805,6.029,0.054,-0.033,-0.011,101.0,102.0,99.0,13.4,1505.2,328.6,-0.7,1.8,2470.506,13.28,0.063,121.4